| time (UTC) | temp F | wind direction | speed MPH | gust MPH | rain 1hr in | rain 24hr in | rain mn in | humidity % | barometer mb |
| 20260502130321 | 69 | 6 | 6.0 | 11.0 | 0.00 | 0.00 | 0.00 | 39 | 1023.9 |
| 20260502123321 | 69 | 117 | 4.0 | 10.0 | 0.00 | 0.00 | 0.00 | 40 | 1024.1 |
| 20260502122318 | 69 | 0 | 5.0 | 11.0 | 0.00 | 0.00 | 0.00 | 39 | 1024.2 |
| 20260502121319 | 70 | 58 | 3.0 | 9.0 | 0.00 | 0.00 | 0.00 | 44 | 1024.2 |
| 20260502120322 | 70 | 289 | 4.0 | 9.0 | 0.00 | 0.00 | 0.00 | 42 | 1024.3 |
| 20260502115323 | 69 | 35 | 4.0 | 9.0 | 0.00 | 0.00 | 0.00 | 45 | 1024.4 |
| 20260502114319 | 70 | 333 | 3.0 | 9.0 | 0.00 | 0.00 | 0.00 | 44 | 1024.4 |
| 20260502113321 | 69 | 14 | 2.0 | 9.0 | 0.00 | 0.00 | 0.00 | 41 | 1024.5 |
| 20260502112322 | 68 | 20 | 5.0 | 11.0 | 0.00 | 0.00 | 0.00 | 42 | 1024.7 |
| 20260502112101 | 68 | 120 | 4.0 | 10.0 | 0.00 | 0.00 | 0.00 | 44 | 1024.7 |
| 20260502110317 | 68 | 329 | 3.0 | 12.0 | 0.00 | 0.00 | 0.00 | 40 | 1024.9 |
| 20260502105319 | 69 | 52 | 3.0 | 6.0 | 0.00 | 0.00 | 0.00 | 40 | 1024.9 |
| 20260502104319 | 68 | 0 | 2.0 | 5.0 | 0.00 | 0.00 | 0.00 | 44 | 1025.1 |
| 20260502103322 | 67 | 244 | 4.0 | 12.0 | 0.00 | 0.00 | 0.00 | 42 | 1025.2 |
| 20260502102316 | 68 | 27 | 5.0 | 9.0 | 0.00 | 0.00 | 0.00 | 41 | 1025.2 |
| 20260502101326 | 68 | 334 | 4.0 | 9.0 | 0.00 | 0.00 | 0.00 | 44 | 1025.4 |
| 20260502100318 | 67 | 330 | 3.0 | 5.0 | 0.00 | 0.00 | 0.00 | 52 | 1025.5 |
| 20260502091316 | 66 | 73 | 2.0 | 5.0 | 0.00 | 0.00 | 0.00 | 48 | 1025.7 |
| 20260502090314 | 65 | 0 | 1.0 | 6.0 | 0.00 | 0.00 | 0.00 | 48 | 1025.9 |
| 20260502071312 | 58 | 338 | 3.0 | 6.0 | 0.00 | 0.00 | 0.00 | 61 | 1026.1 |
| 20260502070850 | 56 | 336 | 3.0 | 5.0 | 0.00 | 0.00 | 0.00 | 64 | 1026.0 |
| 20260502070445 | 57 | 337 | 3.0 | 7.0 | 0.00 | 0.00 | 0.00 | 62 | 1026.0 |
| 20260502064314 | 55 | 313 | 1.0 | 3.0 | 0.00 | 0.00 | 0.00 | 66 | 1026.0 |
| 20260502063744 | 53 | 248 | 2.0 | 3.0 | 0.00 | 0.00 | 0.00 | 66 | 1025.9 |
| 20260502063423 | 54 | 314 | 1.0 | 4.0 | 0.00 | 0.00 | 0.00 | 66 | 1026.0 |
| 20260502061310 | 52 | 331 | 2.0 | 4.0 | 0.00 | 0.00 | 0.00 | 67 | 1026.0 |
| 20260502060320 | 50 | 310 | 3.0 | 4.0 | 0.00 | 0.00 | 0.00 | 66 | 1026.0 |
| 20260502055943 | 50 | 224 | 3.0 | 5.0 | 0.00 | 0.00 | 0.00 | 65 | 1026.1 |
| 20260502054954 | 49 | 295 | 4.0 | 5.0 | 0.00 | 0.00 | 0.00 | 64 | 1026.0 |
| 20260502053309 | 49 | 240 | 3.0 | 5.0 | 0.00 | 0.00 | 0.00 | 64 | 1025.9 |
| 20260502052308 | 49 | 275 | 4.0 | 6.0 | 0.00 | 0.00 | 0.00 | 62 | 1025.9 |
| 20260502051307 | 47 | 319 | 5.0 | 6.0 | 0.00 | 0.00 | 0.00 | 64 | 1025.9 |
| 20260502050308 | 47 | 269 | 2.0 | 5.0 | 0.00 | 0.00 | 0.00 | 65 | 1026.0 |
| 20260502045308 | 47 | 282 | 3.0 | 4.0 | 0.00 | 0.00 | 0.00 | 65 | 1025.9 |
| 20260502044309 | 46 | 313 | 3.0 | 5.0 | 0.00 | 0.00 | 0.00 | 65 | 1025.8 |
| 20260502043307 | 46 | 243 | 4.0 | 5.0 | 0.00 | 0.00 | 0.00 | 64 | 1025.9 |
| 20260502042312 | 46 | 282 | 4.0 | 6.0 | 0.00 | 0.00 | 0.00 | 65 | 1025.7 |
| 20260502041309 | 45 | 285 | 2.0 | 5.0 | 0.00 | 0.00 | 0.00 | 65 | 1025.7 |
| 20260502040308 | 46 | 247 | 3.0 | 6.0 | 0.00 | 0.00 | 0.00 | 64 | 1025.7 |
| 20260502035306 | 46 | 272 | 3.0 | 5.0 | 0.00 | 0.00 | 0.00 | 63 | 1025.7 |
| 20260502034308 | 45 | 285 | 3.0 | 6.0 | 0.00 | 0.00 | 0.00 | 66 | 1025.6 |
| 20260502033934 | 45 | 226 | 3.0 | 7.0 | 0.00 | 0.00 | 0.00 | 65 | 1025.7 |
| 20260502032306 | 45 | 296 | 5.0 | 7.0 | 0.00 | 0.00 | 0.00 | 63 | 1025.6 |
| 20260502031306 | 45 | 261 | 3.0 | 5.0 | 0.00 | 0.00 | 0.00 | 65 | 1025.7 |
| 20260502030929 | 46 | 262 | 3.0 | 9.0 | 0.00 | 0.00 | 0.00 | 64 | 1025.6 |
| 20260502025301 | 46 | 292 | 4.0 | 10.0 | 0.00 | 0.00 | 0.00 | 64 | 1025.7 |
| 20260502024304 | 46 | 220 | 2.0 | 6.0 | 0.00 | 0.00 | 0.00 | 63 | 1025.7 |
| 20260502023301 | 46 | 302 | 4.0 | 5.0 | 0.00 | 0.00 | 0.00 | 62 | 1025.7 |
| 20260502022306 | 46 | 248 | 2.0 | 4.0 | 0.00 | 0.00 | 0.00 | 62 | 1025.8 |
| 20260502021301 | 47 | 250 | 2.0 | 6.0 | 0.00 | 0.00 | 0.00 | 62 | 1025.8 |
| 20260502020256 | 46 | 251 | 3.0 | 4.0 | 0.00 | 0.00 | 0.00 | 62 | 1025.9 |
| 20260502015255 | 46 | 244 | 4.0 | 5.0 | 0.00 | 0.00 | 0.00 | 62 | 1025.8 |
| 20260502014253 | 47 | 244 | 3.0 | 5.0 | 0.00 | 0.00 | 0.00 | 60 | 1025.8 |
| 20260502013253 | 46 | 286 | 4.0 | 5.0 | 0.00 | 0.00 | 0.00 | 60 | 1025.8 |
| 20260502012650 | 47 | 248 | 2.0 | 4.0 | 0.00 | 0.00 | 0.00 | 60 | 1026.0 |
| 20260502012355 | 47 | 255 | 3.0 | 4.0 | 0.00 | 0.00 | 0.00 | 61 | 1025.9 |
| 20260502010251 | 47 | 271 | 2.0 | 5.0 | 0.00 | 0.00 | 0.00 | 60 | 1025.8 |
| 20260502005252 | 47 | 228 | 4.0 | 4.0 | 0.00 | 0.00 | 0.00 | 60 | 1025.9 |
| 20260502004252 | 47 | 276 | 4.0 | 6.0 | 0.00 | 0.00 | 0.00 | 61 | 1025.9 |
| 20260502003250 | 47 | 278 | 3.0 | 5.0 | 0.00 | 0.00 | 0.00 | 60 | 1026.1 |
| 20260502002906 | 47 | 250 | 2.0 | 5.0 | 0.00 | 0.00 | 0.00 | 60 | 1026.1 |
| 20260502001246 | 47 | 271 | 4.0 | 5.0 | 0.00 | 0.00 | 0.00 | 60 | 1026.0 |
| 20260502000247 | 47 | 282 | 4.0 | 5.0 | 0.00 | 0.00 | 0.00 | 61 | 1026.2 |
| 20260501235242 | 47 | 269 | 2.0 | 5.0 | 0.00 | 0.00 | 0.00 | 61 | 1026.2 |
| 20260501234244 | 47 | 276 | 3.0 | 5.0 | 0.00 | 0.00 | 0.00 | 63 | 1026.2 |
| 20260501233244 | 47 | 274 | 5.0 | 7.0 | 0.00 | 0.00 | 0.00 | 63 | 1026.3 |
| 20260501232246 | 47 | 250 | 4.0 | 6.0 | 0.00 | 0.00 | 0.00 | 63 | 1026.3 |
| 20260501231242 | 48 | 247 | 2.0 | 5.0 | 0.00 | 0.00 | 0.00 | 60 | 1026.3 |
| 20260501230244 | 48 | 235 | 4.0 | 6.0 | 0.00 | 0.00 | 0.00 | 60 | 1026.3 |
| 20260501225243 | 48 | 299 | 4.0 | 6.0 | 0.00 | 0.00 | 0.00 | 58 | 1026.3 |
| 20260501224918 | 48 | 282 | 4.0 | 6.0 | 0.00 | 0.00 | 0.00 | 59 | 1026.2 |
| 20260501223244 | 48 | 288 | 4.0 | 6.0 | 0.00 | 0.00 | 0.00 | 59 | 1026.2 |
| 20260501222248 | 48 | 282 | 4.0 | 6.0 | 0.00 | 0.00 | 0.00 | 59 | 1026.1 |
| 20260501221303 | 48 | 286 | 5.0 | 7.0 | 0.00 | 0.00 | 0.00 | 60 | 1026.1 |
| 20260501220803 | 48 | 276 | 3.0 | 5.0 | 0.00 | 0.00 | 0.00 | 61 | 1026.0 |
| 20260501220418 | 48 | 272 | 4.0 | 6.0 | 0.00 | 0.00 | 0.00 | 60 | 1026.0 |
| 20260501215359 | 48 | 271 | 4.0 | 10.0 | 0.00 | 0.00 | 0.00 | 60 | 1025.9 |
| 20260501213242 | 49 | 237 | 3.0 | 5.0 | 0.00 | 0.00 | 0.00 | 59 | 1026.0 |
| 20260501212239 | 49 | 283 | 4.0 | 7.0 | 0.00 | 0.00 | 0.00 | 59 | 1026.0 |
| 20260501211238 | 49 | 283 | 3.0 | 6.0 | 0.00 | 0.00 | 0.00 | 60 | 1025.9 |
| 20260501210234 | 48 | 265 | 2.0 | 5.0 | 0.00 | 0.00 | 0.00 | 60 | 1025.8 |
| 20260501205235 | 48 | 255 | 2.0 | 5.0 | 0.00 | 0.00 | 0.00 | 63 | 1025.9 |
| 20260501204237 | 50 | 234 | 1.0 | 4.0 | 0.00 | 0.00 | 0.00 | 61 | 1026.0 |
| 20260501203908 | 50 | 290 | 3.0 | 3.0 | 0.00 | 0.00 | 0.00 | 58 | 1025.9 |
| 20260501202233 | 51 | 230 | 2.0 | 4.0 | 0.00 | 0.00 | 0.00 | 57 | 1025.9 |
| 20260501201236 | 52 | 258 | 2.0 | 6.0 | 0.00 | 0.00 | 0.00 | 54 | 1025.9 |
| 20260501200237 | 52 | 347 | 3.0 | 6.0 | 0.00 | 0.00 | 0.00 | 53 | 1025.8 |
| 20260501195238 | 52 | 0 | 2.0 | 6.0 | 0.00 | 0.00 | 0.00 | 53 | 1025.8 |
| 20260501194237 | 52 | 345 | 4.0 | 6.0 | 0.00 | 0.00 | 0.00 | 54 | 1025.8 |
| 20260501193236 | 52 | 0 | 5.0 | 7.0 | 0.00 | 0.00 | 0.00 | 53 | 1025.6 |
| 20260501192234 | 53 | 0 | 4.0 | 6.0 | 0.00 | 0.00 | 0.00 | 53 | 1025.6 |
| 20260501191234 | 53 | 348 | 3.0 | 6.0 | 0.00 | 0.00 | 0.00 | 53 | 1025.5 |
| 20260501190928 | 53 | 0 | 3.0 | 5.0 | 0.00 | 0.00 | 0.00 | 52 | 1025.4 |
| 20260501185251 | 53 | 1 | 4.0 | 7.0 | 0.00 | 0.00 | 0.00 | 52 | 1025.3 |
| 20260501184235 | 53 | 11 | 4.0 | 5.0 | 0.00 | 0.00 | 0.00 | 51 | 1025.2 |
| 20260501183232 | 53 | 0 | 4.0 | 6.0 | 0.00 | 0.00 | 0.00 | 51 | 1025.2 |
| 20260501182238 | 54 | 354 | 4.0 | 6.0 | 0.00 | 0.00 | 0.00 | 51 | 1025.1 |
| 20260501181236 | 54 | 0 | 3.0 | 5.0 | 0.00 | 0.00 | 0.00 | 50 | 1025.1 |
| 20260501180232 | 55 | 350 | 4.0 | 5.0 | 0.00 | 0.00 | 0.00 | 48 | 1025.0 |
| 20260501175234 | 55 | 336 | 3.0 | 5.0 | 0.00 | 0.00 | 0.00 | 47 | 1025.0 |
| 20260501174230 | 55 | 0 | 3.0 | 7.0 | 0.00 | 0.00 | 0.00 | 46 | 1024.9 |
| 20260501173230 | 56 | 7 | 4.0 | 6.0 | 0.00 | 0.00 | 0.00 | 44 | 1024.9 |
| 20260501172230 | 56 | 348 | 3.0 | 5.0 | 0.00 | 0.00 | 0.00 | 42 | 1024.9 |
| 20260501171914 | 56 | 340 | 3.0 | 5.0 | 0.00 | 0.00 | 0.00 | 41 | 1024.8 |
| 20260501170228 | 57 | 0 | 2.0 | 5.0 | 0.00 | 0.00 | 0.00 | 41 | 1024.9 |
| 20260501165227 | 57 | 13 | 2.0 | 5.0 | 0.00 | 0.00 | 0.00 | 41 | 1024.7 |
| 20260501164234 | 57 | 0 | 3.0 | 7.0 | 0.00 | 0.00 | 0.00 | 40 | 1024.8 |
| 20260501163231 | 57 | 71 | 2.0 | 4.0 | 0.00 | 0.00 | 0.00 | 42 | 1024.7 |
| 20260501162938 | 57 | 65 | 3.0 | 5.0 | 0.00 | 0.00 | 0.00 | 42 | 1024.7 |
| 20260501161228 | 57 | 7 | 2.0 | 6.0 | 0.00 | 0.00 | 0.00 | 41 | 1024.8 |
| 20260501160224 | 58 | 63 | 3.0 | 10.0 | 0.00 | 0.00 | 0.00 | 40 | 1024.9 |
| 20260501155223 | 58 | 0 | 3.0 | 9.0 | 0.00 | 0.00 | 0.00 | 42 | 1024.9 |
| 20260501154224 | 58 | 55 | 5.0 | 10.0 | 0.00 | 0.00 | 0.00 | 41 | 1025.0 |
| 20260501153223 | 58 | 47 | 4.0 | 12.0 | 0.00 | 0.00 | 0.00 | 40 | 1025.0 |
| 20260501152919 | 59 | 68 | 6.0 | 10.0 | 0.00 | 0.00 | 0.00 | 40 | 1025.0 |
| 20260501151223 | 59 | 31 | 5.0 | 12.0 | 0.00 | 0.00 | 0.00 | 40 | 1025.2 |
| 20260501150935 | 59 | 1 | 7.0 | 13.0 | 0.00 | 0.00 | 0.00 | 41 | 1025.1 |
| 20260501145222 | 60 | 20 | 6.0 | 13.0 | 0.00 | 0.00 | 0.00 | 41 | 1025.1 |
| 20260501144225 | 60 | 3 | 3.0 | 9.0 | 0.00 | 0.00 | 0.00 | 42 | 1025.1 |
| 20260501143220 | 60 | 75 | 5.0 | 12.0 | 0.00 | 0.00 | 0.00 | 41 | 1025.2 |
| 20260501142219 | 60 | 354 | 6.0 | 12.0 | 0.00 | 0.00 | 0.00 | 45 | 1025.2 |